User: anonymous   Login
Location: Bacea
(45.9500°N, 22.6667°E)
Time: 23:14:15
(UTC+00:00)
Language:

SL-19 R/B - Orbit

View from above orbital plane
View from above orbital plane
View from above satellite
View from above satellite

Ground track
Ground track

The orbit data is extracted from the following two-line orbital elements,

1 36589U 10023B   22020.49126456 -.00000040  00000-0  14882-4 0  9992
2 36589 100.5561 208.7385 0224938 290.7993 121.0113 13.58402458577212
Epoch (UTC): 20 January 2022 11:47:25
Eccentricity: 0.0224938
inclination: 100.5561°
perigee height: 874 km
apogee height: 1208 km
right ascension of ascending node: 208.7385°
argument of perigee: 290.7993°
revolutions per day: 13.58402458
mean anomaly at epoch: 121.0113°
orbit number at epoch: 57721

The dashed part of the orbit path shows where the satellite is in the earth's shadow,  

DLR